GEFSCGP_500_meanwind_018.txt.gz
Wind_Speed
28 29 27 25 25 24 24 22 20 20 19 23 30 33 32 28 29 32 33 33 33 33 37 39 36 29 25 24 25 28 29 29 31 31 32 33 34 34 33 33 33 33 33 34
29 27 23 24 23 23 25 28 28 27 26 27 29 32 35 36 34 32 36 38 37 36 40 42 40 35 31 27 28 31 33 34 36 37 37 38 38 39 39 38 38 38 38 38
24 17 19 23 23 23 25 27 29 30 31 33 34 36 38 42 39 37 38 42 43 39 41 44 42 39 36 33 31 33 36 38 39 40 41 42 43 43 44 43 43 43 42 41
20 19 19 20 21 21 24 25 27 29 31 33 33 36 36 36 33 32 33 38 42 38 39 43 43 41 38 35 33 35 37 39 41 42 44 45 47 47 47 47 47 47 44 43
17 18 19 18 17 19 19 19 21 23 27 32 33 37 36 32 29 31 30 33 39 38 36 39 39 40 39 35 34 36 38 40 42 44 47 48 49 49 49 49 48 46 43 43
20 18 19 18 17 17 16 17 20 22 24 29 27 29 32 28 27 29 26 30 34 34 34 35 36 37 37 36 35 37 39 41 43 45 47 49 50 49 49 49 47 45 45 44
21 21 21 20 20 19 19 18 18 19 21 21 17 21 22 20 21 25 26 29 31 32 36 37 35 35 36 35 36 37 40 42 43 45 47 48 49 48 47 46 46 46 46 46
22 23 22 25 25 21 20 21 19 18 19 18 16 17 16 17 19 24 29 33 36 38 39 38 36 35 35 35 36 38 40 41 43 44 45 46 46 44 44 45 45 47 48 48
20 20 21 24 26 25 21 23 20 21 21 23 23 23 21 20 23 25 27 29 32 34 33 32 32 33 34 35 36 37 38 39 40 41 42 43 44 44 44 46 47 48 50 51
30 29 20 18 22 25 23 21 22 24 24 25 23 20 18 19 21 22 24 26 29 29 27 27 30 33 35 35 36 37 37 38 40 41 42 43 44 45 46 47 47 50 52 52
35 35 28 19 21 21 21 21 22 24 25 25 25 21 18 22 24 24 23 25 30 30 29 30 32 32 33 34 36 36 37 38 40 42 44 45 45 47 47 48 49 51 52 52
36 38 37 32 27 22 23 25 25 27 27 27 29 27 24 29 30 29 28 30 37 37 33 31 31 31 32 33 34 36 38 40 42 44 45 46 48 49 51 51 50 51 52 52
41 41 39 35 31 28 26 27 28 30 30 30 28 25 27 32 32 34 36 39 38 32 28 28 29 30 32 33 34 36 39 41 44 46 47 50 52 53 53 52 51 52 53 55
38 41 39 34 25 24 30 32 31 29 29 30 29 29 34 36 37 39 40 36 31 25 25 27 29 32 34 35 37 38 41 44 46 49 51 53 54 54 54 54 53 54 57 60
39 41 40 39 36 33 26 27 30 32 31 28 26 28 34 35 37 39 37 33 28 26 27 30 33 35 37 38 40 42 45 48 51 54 55 55 54 55 56 56 57 59 62 60
37 39 40 40 39 40 39 36 32 31 28 27 28 32 40 42 42 42 40 38 39 38 38 38 39 40 42 44 45 48 50 53 55 56 55 54 55 56 58 60 61 61 60 57
34 35 37 38 38 38 41 41 40 40 38 41 42 45 46 46 46 46 48 48 48 47 46 45 45 46 47 48 50 52 54 55 55 55 54 54 56 59 61 60 58 56 53 49
34 34 35 36 37 40 37 34 38 40 43 45 45 45 45 44 43 44 46 48 49 48 48 48 48 49 49 50 51 52 53 52 51 51 52 54 57 59 59 57 54 50 46 45
33 33 34 34 35 36 31 35 39 41 45 44 44 43 44 43 44 44 45 46 47 47 47 47 46 46 46 47 47 48 48 48 49 51 52 54 57 57 54 50 46 44 45 46
28 30 31 32 33 33 35 37 38 38 41 41 41 40 40 40 42 42 43 44 44 45 44 44 44 43 44 44 44 44 45 46 48 50 53 54 52 48 45 43 43 44 45 46
24 25 27 28 30 31 35 37 37 39 42 40 39 38 37 38 39 39 40 40 40 41 41 42 41 41 41 40 39 40 41 44 46 48 48 45 43 41 40 40 42 44 45 46
26 25 25 26 28 32 34 35 37 39 39 38 37 36 36 35 35 35 35 35 35 36 36 36 36 35 34 34 35 37 40 42 43 43 41 39 38 39 40 41 43 44 45 45
25 26 26 26 28 30 31 33 34 35 36 35 35 35 35 34 34 33 32 32 31 31 30 29 28 28 29 31 35 37 39 39 39 37 35 36 37 38 40 42 43 43 42 40
21 21 23 25 27 30 32 32 32 33 34 35 35 35 35 34 33 32 30 29 28 27 26 25 25 26 29 32 34 36 35 34 32 32 34 36 37 39 41 41 41 39 36 32
21 21 21 24 27 30 32 32 32 33 34 35 35 35 34 33 31 29 27 26 25 23 22 23 24 26 29 29 29 28 28 28 31 33 35 36 37 38 38 36 34 31 27 25
22 23 23 24 27 27 28 28 28 28 28 29 30 30 29 29 27 25 23 21 20 19 19 21 24 26 25 24 23 24 26 29 31 33 34 35 36 34 32 29 26 24 22 20

GEFSCGP_500_meanwind_024.txt.gz
Wind_Speed
34 34 32 29 29 29 31 34 34 30 26 27 24 21 19 20 24 25 27 30 33 35 36 37 37 37 36 36 36 36 36 35 37 36 34 31 30 29 30 32 34 35 36 37
35 32 27 29 31 32 33 34 33 29 29 30 28 26 24 24 25 27 29 32 35 38 39 39 40 40 39 38 38 39 39 40 39 39 38 36 33 33 35 36 37 38 39 41
31 26 29 32 32 32 32 32 30 28 29 31 32 31 27 26 26 29 32 34 37 40 41 41 42 42 41 40 39 40 42 43 42 41 41 38 37 37 38 38 39 40 42 43
30 30 33 34 33 31 28 27 28 28 31 33 34 36 30 28 29 31 32 34 36 39 40 42 40 39 38 38 39 42 44 45 46 45 42 39 38 37 37 38 40 41 43 44
28 30 32 31 29 27 24 22 24 26 29 32 34 37 33 31 33 35 36 38 39 40 41 40 37 36 36 37 41 43 45 48 47 42 40 37 35 36 37 38 40 42 43 45
27 32 33 29 26 21 19 20 24 27 28 28 24 29 28 24 31 36 40 42 42 41 39 37 35 35 36 39 42 44 47 46 44 42 39 37 36 36 38 39 41 42 44 45
29 33 34 31 27 23 21 22 24 26 25 20 15 21 17 17 23 28 31 33 33 34 33 33 32 33 36 40 43 45 47 47 46 44 41 39 37 38 40 41 43 44 46 47
28 31 31 28 24 21 21 23 24 23 21 18 18 19 14 17 20 21 22 23 25 26 28 30 31 33 37 41 44 46 46 46 45 43 41 40 40 41 43 44 45 47 48 49
28 28 26 24 21 21 21 23 22 23 22 22 21 19 18 19 20 22 23 24 25 27 29 31 33 36 39 42 43 44 43 41 40 40 40 41 43 44 45 47 48 50 52 52
27 27 28 27 26 27 25 22 24 26 25 25 23 20 21 23 24 25 27 28 29 30 32 34 36 39 41 42 43 42 40 37 37 37 39 42 44 45 47 49 51 53 54 55
28 30 32 30 28 27 28 28 28 26 25 25 23 22 23 24 27 29 30 31 32 34 35 37 38 40 42 43 42 43 38 34 35 37 40 42 45 47 49 51 53 55 56 57
31 32 34 32 27 24 27 31 32 31 27 25 24 27 28 29 29 30 32 34 36 37 38 38 40 41 43 44 43 40 35 34 36 39 42 45 47 49 51 53 55 56 58 60
34 34 34 33 30 28 28 29 32 31 29 28 28 31 32 33 33 34 36 38 41 42 43 42 42 43 44 45 43 40 37 37 39 42 45 48 50 53 54 56 58 60 62 64
37 37 36 35 37 36 33 31 31 32 32 32 32 34 36 38 38 39 40 42 43 43 43 43 44 45 46 47 44 41 40 40 43 46 49 51 54 56 57 59 62 63 64 65
39 40 40 39 39 40 40 37 36 35 35 35 36 39 42 44 45 45 46 47 46 45 42 42 42 44 45 46 47 47 46 47 48 50 52 54 56 58 60 61 62 62 62 61
40 40 40 41 41 42 44 44 43 41 40 42 45 47 48 49 49 50 50 50 48 45 41 41 44 46 48 49 51 51 51 51 51 52 53 55 56 57 58 59 60 59 59 59
42 41 40 40 39 40 44 47 48 47 46 48 49 50 49 49 48 47 46 47 48 48 49 49 49 50 51 51 52 52 52 52 52 52 52 53 53 53 54 56 56 57 56 56
41 41 40 39 38 37 40 44 46 47 48 50 52 53 53 53 53 53 54 55 55 56 55 54 53 52 52 52 51 51 51 50 50 50 49 49 50 50 51 52 52 52 52 52
36 36 37 37 36 35 34 37 40 41 43 45 47 50 52 53 53 53 53 53 54 54 54 53 52 52 51 50 50 49 49 48 47 46 45 45 46 46 47 48 49 49 50 49
33 35 35 36 36 35 35 34 35 37 39 40 42 44 46 47 47 48 49 50 50 50 50 50 50 50 49 48 47 46 45 43 42 41 41 41 42 44 45 46 46 45 45 44
26 29 30 30 31 31 31 30 30 33 35 36 38 40 42 44 44 45 45 46 46 46 47 47 47 46 46 45 44 42 40 38 37 37 38 39 40 42 42 42 43 43 43 43
18 19 21 23 23 24 24 24 25 27 29 31 34 36 39 41 42 44 44 45 45 44 44 43 43 43 42 41 40 38 36 35 36 37 38 39 39 39 39 39 39 40 41 41
18 18 19 20 22 23 23 24 24 25 26 28 30 33 34 36 38 40 41 41 41 41 40 40 39 39 37 36 34 33 33 34 34 35 36 36 36 37 37 38 38 38 37 36
16 17 18 19 20 22 22 23 24 25 26 28 30 32 33 34 35 36 37 38 38 37 36 36 35 34 32 31 31 31 32 33 33 32 33 34 35 36 36 36 35 34 32 30
15 15 17 18 19 21 23 24 25 26 27 28 30 31 32 33 34 34 34 33 32 30 29 28 28 27 27 27 28 29 29 29 30 31 32 33 34 34 33 31 30 28 27 25
14 15 17 19 21 23 24 25 26 27 27 27 28 28 28 28 28 28 27 25 23 21 21 20 21 22 23 23 24 25 26 28 30 31 31 31 30 29 27 26 25 25 23 22

GEFSCGP_500_meanwind_030.txt.gz
Wind_Speed
35 35 34 33 34 35 36 37 38 38 40 40 39 35 31 32 32 33 33 33 32 30 27 25 23 23 23 23 25 27 29 32 34 35 36 37 38 39 38 36 34 35 35 34
34 33 32 33 35 36 37 38 37 38 41 44 44 41 36 34 36 36 35 35 33 32 30 28 27 26 25 25 26 28 30 33 35 37 39 40 41 40 39 37 35 33 33 34
33 31 31 33 35 36 37 37 36 37 41 44 45 45 41 38 38 37 36 36 35 33 31 30 30 29 28 27 28 31 33 35 37 39 41 42 42 41 39 33 31 30 31 32
33 32 33 34 34 35 34 32 34 37 39 42 44 45 42 40 40 39 38 37 37 35 33 32 32 32 31 31 33 35 37 39 41 42 43 43 43 40 34 31 29 27 27 28
32 31 32 33 33 33 30 30 33 36 38 40 41 43 40 39 39 38 39 39 39 37 35 34 34 34 34 36 38 39 41 43 44 44 44 45 42 38 33 30 29 27 28 29
32 31 33 33 32 32 31 33 35 36 37 38 36 39 40 37 37 37 38 39 38 37 36 34 34 36 37 39 41 43 44 44 45 46 46 44 39 37 35 33 31 30 30 31
30 31 33 34 34 34 34 35 35 36 36 36 32 36 38 36 36 37 38 38 38 37 37 37 37 38 39 40 41 42 42 43 43 43 43 42 38 38 37 35 32 31 32 34
28 29 31 32 33 33 33 34 34 35 34 32 31 34 34 34 34 34 34 34 34 34 34 35 36 36 37 38 38 38 39 40 41 42 42 41 41 39 38 35 33 34 36 38
25 26 28 29 29 30 31 32 31 33 32 31 31 32 31 30 30 30 31 31 31 32 32 32 32 32 33 33 34 35 36 39 41 42 43 43 41 40 40 37 37 39 40 42
23 23 25 27 30 31 32 32 32 32 31 30 31 29 28 28 29 29 30 30 31 31 31 31 31 31 31 33 34 36 38 40 42 44 45 44 42 42 41 40 41 42 44 46
20 21 23 28 32 34 34 34 34 33 31 29 29 28 27 28 28 29 30 31 32 31 31 31 31 32 33 35 37 40 42 44 45 46 46 46 45 45 45 44 45 46 48 50
19 20 23 28 32 34 35 35 34 33 32 30 29 29 29 28 29 30 31 31 31 32 32 32 32 34 36 38 40 43 45 46 48 48 48 48 48 47 47 47 48 49 51 53
21 21 23 28 32 34 35 35 35 34 33 32 31 32 32 31 32 33 33 33 33 33 33 33 35 37 39 41 43 45 47 48 49 49 49 50 49 49 50 50 51 52 53 55
25 26 25 27 31 33 34 35 36 35 35 35 35 35 36 37 37 37 37 37 36 36 36 36 38 39 41 44 45 47 49 50 51 51 52 52 52 52 52 52 53 54 55 56
29 29 30 30 32 33 33 34 36 37 37 37 37 38 40 41 42 42 42 41 40 39 39 40 41 42 44 46 48 50 51 53 53 53 53 53 53 52 52 53 54 55 56 57
33 33 34 34 35 37 38 38 38 39 40 40 40 41 42 43 43 43 42 41 41 40 40 42 44 46 48 50 51 53 54 55 55 55 53 52 51 51 52 52 53 54 55 55
34 35 36 37 38 38 40 40 40 41 40 40 40 41 43 43 42 41 39 40 40 41 42 45 47 49 51 52 53 54 54 54 54 52 51 51 50 50 50 51 52 52 52 53
30 33 35 36 38 39 38 37 36 36 38 39 39 38 39 39 39 39 39 39 40 42 44 46 47 49 50 52 53 53 53 53 52 50 50 49 49 49 49 49 49 49 50 49
25 28 30 31 33 35 35 34 34 34 34 34 34 35 36 37 38 39 39 39 40 41 43 45 47 49 50 51 51 51 51 50 49 48 48 47 47 47 46 46 47 47 47 47
21 23 25 26 27 28 29 29 30 32 32 32 33 34 34 36 37 38 39 40 41 42 44 45 46 48 49 49 49 49 48 47 47 46 46 45 45 44 44 45 45 45 46 46
18 19 20 21 22 24 24 24 25 25 26 28 30 32 33 35 36 37 38 40 41 42 43 44 45 46 46 46 46 46 45 45 45 44 43 42 42 42 42 43 43 44 44 45
16 16 16 16 17 18 19 20 22 22 23 25 26 28 29 31 32 34 35 36 38 39 40 41 41 42 42 43 43 42 42 41 41 40 40 40 40 40 41 41 42 42 43 43
14 14 14 14 14 14 15 17 18 20 21 22 24 26 27 29 30 31 32 33 35 36 37 38 39 40 40 40 39 38 37 36 36 36 37 38 38 39 39 39 40 40 40 39
13 13 13 13 13 14 14 16 18 19 21 22 24 25 27 28 29 30 31 32 33 35 36 36 36 36 35 34 32 32 32 32 33 34 35 35 36 37 37 38 37 37 35 33
13 12 12 12 13 13 14 16 18 19 20 22 24 25 26 27 28 29 30 30 30 30 30 29 29 28 27 26 26 27 29 30 30 31 33 34 35 35 35 34 32 31 29 27
13 13 13 13 14 15 16 17 18 19 20 21 22 23 23 23 23 23 23 22 22 22 22 21 20 21 21 23 24 26 27 28 30 31 31 31 31 31 30 29 27 26 24 23

GEFSCGP_500_meanwind_036.txt.gz
Wind_Speed
33 31 30 31 32 33 32 32 35 37 34 32 33 32 31 29 28 27 27 27 25 24 23 23 24 26 26 26 27 26 26 26 27 28 30 32 34 35 39 41 42 41 38 36
34 32 30 31 32 33 34 34 35 38 37 37 37 36 34 34 33 31 31 30 30 29 28 27 26 27 28 28 29 29 29 29 30 32 34 35 37 39 42 43 41 38 35 33
34 32 31 31 31 32 34 35 36 38 40 40 39 38 38 38 37 35 34 34 34 33 32 32 31 30 29 29 30 31 31 33 34 35 36 38 40 41 42 42 41 39 37 32
34 33 32 31 31 31 32 34 36 37 39 40 43 41 37 41 41 39 38 38 37 37 37 36 34 32 31 31 32 33 34 36 37 38 38 40 41 43 43 44 42 41 35 32
32 32 31 31 31 31 32 33 35 37 39 41 42 41 36 42 42 42 42 41 41 41 40 38 36 34 33 33 33 35 36 37 38 39 40 41 41 42 44 42 40 39 34 32
30 31 31 31 32 32 32 33 34 36 38 40 40 40 35 41 42 41 42 42 42 42 41 38 36 34 33 33 34 35 36 38 39 40 40 40 40 41 41 39 39 37 35 34
28 29 30 30 31 32 32 32 31 32 35 34 36 37 35 42 39 38 38 38 38 37 37 35 34 32 32 32 33 34 35 36 37 38 38 38 38 38 38 38 37 36 35 34
22 23 26 28 28 29 30 31 30 25 23 23 31 31 36 37 35 34 33 32 32 31 31 31 30 29 29 30 31 33 34 35 36 37 37 37 37 37 37 37 37 36 36 36
16 17 22 25 26 27 28 30 28 29 26 22 21 29 34 32 31 30 29 28 28 27 27 27 27 27 27 29 30 31 33 34 36 36 36 36 37 37 37 38 38 39 39 39
15 15 17 21 24 26 27 26 29 30 26 23 22 24 26 29 28 27 26 26 26 26 25 25 26 27 28 29 30 31 33 34 35 36 36 37 38 39 39 40 41 42 43 43
13 13 14 17 19 19 24 27 28 27 24 22 19 20 25 25 24 24 25 25 25 25 25 26 27 29 30 31 32 33 34 35 36 37 38 39 40 41 42 44 45 46 46 47
12 12 13 16 19 20 22 23 26 26 25 26 22 24 25 23 22 22 23 24 25 26 26 28 29 31 32 33 34 36 37 38 39 40 41 42 43 44 46 47 49 50 50 50
12 13 13 15 18 22 23 25 26 28 27 25 23 27 28 26 25 25 26 27 28 29 30 32 33 34 36 37 39 40 41 42 43 44 44 45 46 48 49 50 51 52 51 51
14 15 16 17 19 22 24 26 27 28 26 26 27 31 31 30 30 30 31 32 33 34 35 36 37 39 40 41 43 44 45 46 47 47 48 48 49 50 51 52 53 53 53 52
16 18 19 21 22 23 25 27 28 30 31 30 32 35 35 34 34 35 35 36 38 39 40 41 41 42 43 44 45 47 47 48 48 48 49 49 50 51 52 53 53 53 54 54
17 19 21 23 24 25 26 27 29 30 32 34 35 37 37 37 37 38 39 40 41 42 42 42 43 44 44 44 44 45 45 45 45 46 47 49 51 52 53 53 53 53 54 53
16 18 20 22 24 25 27 29 29 31 32 33 35 37 38 39 40 40 41 41 41 42 41 41 42 42 42 43 44 43 44 44 45 46 47 49 51 52 53 53 53 53 52 52
14 15 17 20 22 24 28 28 29 31 32 34 36 38 38 39 40 40 39 39 39 39 38 38 38 39 40 41 41 42 43 44 46 47 49 50 50 51 51 51 51 51 51 51
12 13 14 16 19 21 24 24 26 28 30 30 32 32 33 34 35 36 35 35 36 36 36 36 36 37 38 40 41 42 44 46 47 48 48 49 49 49 49 49 49 49 49 49
12 12 13 14 16 19 20 20 21 23 26 26 27 28 29 29 31 31 31 31 32 33 34 36 37 39 40 41 43 44 45 45 46 46 47 47 48 48 48 47 47 47 47 47
11 11 11 12 14 17 16 16 17 20 22 22 23 23 24 26 28 29 30 30 32 33 34 36 38 39 40 40 41 42 43 44 44 45 45 45 45 45 45 45 44 44 45 45
11 10 10 11 13 14 13 14 16 18 19 20 20 21 22 23 24 26 28 29 31 32 33 35 36 37 38 39 40 40 41 41 42 42 42 42 41 41 41 41 41 41 41 41
11 10 10 10 11 11 11 12 13 15 17 18 19 20 21 22 23 25 27 28 30 31 33 34 35 35 36 37 37 37 37 38 38 38 38 38 38 38 38 38 38 39 38 38
11 10 9 10 10 11 11 10 12 14 15 17 18 19 21 22 24 25 26 27 28 29 31 31 32 32 32 33 33 33 33 34 34 34 35 35 36 36 36 35 35 34 33 32
10 9 9 10 11 11 12 12 13 15 16 17 18 19 21 22 23 24 24 24 25 25 26 26 27 27 27 28 28 29 30 31 32 32 33 33 33 32 31 31 30 29 28 26
10 9 9 9 10 11 12 14 14 15 15 16 17 18 19 19 19 19 19 19 20 21 21 22 22 23 24 25 26 28 28 29 29 29 28 28 27 27 27 26 25 23 21 19

GEFSCGP_500_meanwind_042.txt.gz
Wind_Speed
36 36 34 31 27 25 20 15 15 13 16 19 18 20 20 19 20 22 22 21 22 22 22 23 24 24 22 19 19 21 24 25 27 28 29 30 30 31 32 33 35 34 35 34
36 35 34 31 27 26 27 23 20 17 18 23 23 23 24 21 20 23 25 24 25 26 27 27 27 27 26 24 23 24 26 28 30 32 32 32 33 33 34 35 36 37 36 35
33 30 31 32 28 27 30 28 23 20 21 27 29 27 27 26 24 27 29 28 30 31 31 30 30 29 29 29 28 28 29 31 33 34 34 35 36 36 36 37 38 39 38 37
30 28 28 30 30 28 31 30 28 26 25 25 28 28 27 27 28 30 31 33 35 33 31 32 32 32 34 34 34 32 33 34 35 35 36 37 38 38 39 40 40 40 39 37
27 28 28 29 29 28 28 27 27 29 31 31 29 27 23 23 27 30 33 37 36 33 33 34 36 36 36 36 37 36 36 36 36 37 37 38 39 40 41 42 42 41 39 39
22 24 27 27 27 28 26 24 24 28 32 35 32 29 24 24 28 34 38 39 37 35 34 35 36 37 38 39 39 39 38 37 37 38 39 40 41 42 43 43 43 42 41 40
22 21 24 27 27 25 26 26 24 25 29 31 26 28 28 30 33 36 38 40 40 40 39 38 38 38 39 39 39 39 37 37 37 38 40 41 41 42 43 43 43 42 42 41
14 17 20 24 28 25 25 25 25 20 16 15 17 22 27 33 37 38 40 42 43 44 43 42 40 38 37 37 37 36 36 37 37 38 39 40 41 42 43 43 43 43 43 42
12 12 15 19 23 25 23 23 22 22 21 19 15 22 32 34 35 37 40 43 45 46 46 43 40 37 35 34 34 35 35 36 37 38 39 41 42 42 43 44 44 44 44 44
16 14 13 15 18 21 21 19 19 25 24 22 17 20 28 31 32 32 34 38 41 42 41 39 36 34 33 33 34 34 35 36 37 38 40 41 42 43 44 45 46 46 47 47
15 15 14 13 15 16 18 21 22 22 23 22 20 24 27 28 30 31 33 33 33 32 33 33 33 33 33 33 34 35 36 37 38 39 41 42 43 44 46 46 48 49 50 51
15 16 15 15 15 16 18 20 21 24 24 24 23 27 30 30 32 32 31 29 28 29 30 31 32 32 33 34 34 35 37 38 40 41 42 44 45 46 48 49 50 51 52 53
14 16 15 13 15 18 20 20 22 25 26 26 25 28 30 31 33 33 31 30 29 29 30 32 33 34 35 35 36 38 39 41 42 44 45 47 48 49 50 51 51 53 54 55
12 14 16 17 19 20 22 23 23 23 24 25 28 31 33 32 32 32 31 30 30 30 31 33 35 36 38 39 40 42 43 45 47 48 49 50 51 52 52 52 53 55 56 56
10 13 16 15 14 15 17 19 21 23 25 26 30 33 36 37 37 35 33 31 31 31 32 35 37 39 41 43 44 46 47 49 50 51 52 52 53 53 53 54 54 55 56 56
9 12 14 14 14 15 15 17 16 19 22 26 30 33 34 36 34 34 32 30 30 32 35 37 39 41 44 45 45 47 48 49 50 50 51 51 51 51 52 53 54 55 55 55
8 11 13 13 15 16 18 21 23 25 27 29 30 33 36 38 40 38 35 34 33 34 36 37 39 41 41 43 44 45 46 47 47 47 47 47 48 50 50 50 51 52 53 53
8 9 11 13 15 17 21 23 24 27 29 29 30 32 36 39 39 39 38 38 36 35 35 36 36 37 38 39 39 39 40 41 41 42 44 45 45 46 48 49 50 51 52 52
8 8 9 10 12 17 21 23 24 26 29 29 32 34 36 37 39 39 39 39 38 37 37 38 36 36 36 36 36 38 39 40 41 42 44 45 46 47 47 48 48 49 49 50
9 9 9 11 14 19 20 21 21 23 27 27 29 30 32 33 34 35 35 35 35 35 36 35 34 34 35 35 37 38 39 40 42 43 43 44 45 45 46 46 47 47 47 47
11 11 11 12 15 18 20 21 21 23 24 24 24 25 27 28 28 27 27 27 28 29 29 30 31 33 35 36 38 39 40 41 41 41 42 43 43 43 43 43 43 43 43 43
12 12 13 13 15 16 16 17 18 19 20 21 22 23 23 23 24 24 24 25 26 26 28 29 31 32 33 34 35 36 37 38 39 39 40 40 40 39 39 39 39 39 39 39
12 13 15 15 15 15 15 15 16 17 18 18 19 20 20 21 21 21 22 23 25 27 28 29 30 30 31 32 33 34 35 36 36 36 36 36 36 36 36 36 36 36 35 35
15 14 15 16 15 15 15 15 15 15 16 17 17 18 19 19 20 21 22 23 24 25 26 26 27 28 29 30 31 32 32 32 32 32 33 33 32 33 33 32 32 32 31 30
16 16 16 16 15 15 15 15 15 16 16 17 17 17 17 18 18 19 20 21 21 22 23 24 26 27 28 28 28 29 30 30 30 30 30 30 30 29 29 28 27 26 25 23
16 16 16 16 16 16 16 16 16 15 15 15 15 15 16 17 17 18 18 19 20 20 22 23 24 24 25 25 26 27 28 28 28 28 27 27 26 25 24 22 21 20 19 18